Project,Study,Ord_Occ,Event_Num,Date_Time_UTC,Date_Time_PST,Lat_Dec,Lon_Dec,Sta_ID,Line,Sta,Depth,Pressure,Temp0,Temp1,Salt0,CorrSalt0,Salt1,CorrSalt1,O2ml/L,AveCorrO2ml/L,StaCorrO2ml/L,FluorV,AveEstChl,StaEstChl,ISUSV,AveEstNO3,StaEstNO3,SigThetaTS0,SigThetaTS1,BAT,XMiss,SPAR,PAR,BTL_Depth,BTL_Temp,BTL_Salt,BTL_O2ml/L,BTL_Chl,BTL_Pha,BTL_NO3
CalCOFI,0701JD,0000,035,13-Jan-2007 1:42:08 PM,13-Jan-2007 5:42:08 AM,32.84500,-117.53818,093.3 030.0,093.3,030.0,512.000,516.272,6.7044,6.7055,34.3095,34.3082,34.3073,34.3074,0.37074,0.42,0.46,0.0254,,,1.4532,32.17,37.498,26.9214,26.9196,0.3848,90.8301,3.0761e+00,9.9990e+03,,,,,,,
CalCOFI,0701JD,0000,035,13-Jan-2007 1:42:13 PM,13-Jan-2007 5:42:13 AM,32.84493,-117.53818,093.3 030.0,093.3,030.0,511.000,515.263,6.7034,6.7040,34.3094,34.3081,34.3072,34.3073,0.37003,0.42,0.46,0.0254,,,1.4495,32.06,37.386,26.9215,26.9197,0.3852,90.8204,2.8764e+00,9.9990e+03,511,6.72 ,34.306,  .39,,,37.8
CalCOFI,0701JD,0000,035,13-Jan-2007 1:42:15 PM,13-Jan-2007 5:42:15 AM,32.84481,-117.53818,093.3 030.0,093.3,030.0,510.000,514.253,6.7074,6.7104,34.3095,34.3082,34.3074,34.3075,0.37046,0.42,0.46,0.0254,,,1.4524,32.14,37.474,26.9210,26.9190,0.3850,90.8230,2.9601e+00,9.9990e+03,,,,,,,
CalCOFI,0701JD,0000,035,13-Jan-2007 1:42:17 PM,13-Jan-2007 5:42:17 AM,32.84482,-117.53818,093.3 030.0,093.3,030.0,509.000,513.243,6.7204,6.7221,34.3094,34.3081,34.3070,34.3071,0.36940,0.42,0.46,0.0254,,,1.4477,32.00,37.332,26.9192,26.9171,0.3846,90.8328,2.9348e+00,9.9990e+03,,,,,,,
CalCOFI,0701JD,0000,035,13-Jan-2007 1:42:19 PM,13-Jan-2007 5:42:19 AM,32.84482,-117.53818,093.3 030.0,093.3,030.0,508.000,512.234,6.7343,6.7339,34.3092,34.3079,34.3068,34.3069,0.36899,0.42,0.46,0.0253,,,1.4624,32.44,37.776,26.9172,26.9153,0.3855,90.8120,2.9506e+00,9.9990e+03,,,,,,,
CalCOFI,0701JD,0000,035,13-Jan-2007 1:42:21 PM,13-Jan-2007 5:42:21 AM,32.84482,-117.53818,093.3 030.0,093.3,030.0,507.000,511.224,6.7542,6.7561,34.3084,34.3071,34.3061,34.3062,0.36942,0.42,0.46,0.0254,,,1.4324,31.56,36.870,26.9139,26.9119,0.3853,90.8183,3.2037e+00,9.9990e+03,,,,,,,
CalCOFI,0701JD,0000,035,13-Jan-2007 1:42:22 PM,13-Jan-2007 5:42:22 AM,32.84482,-117.53818,093.3 030.0,093.3,030.0,506.000,510.215,6.7587,6.7600,34.3086,34.3073,34.3065,34.3066,0.37228,0.42,0.46,0.0253,,,1.4723,32.73,38.076,26.9134,26.9116,0.3853,90.8172,2.9595e+00,9.9990e+03,,,,,,,
CalCOFI,0701JD,0000,035,13-Jan-2007 1:42:23 PM,13-Jan-2007 5:42:23 AM,32.84482,-117.53818,093.3 030.0,093.3,030.0,505.000,509.205,6.7746,6.7752,34.3084,34.3071,34.3059,34.3060,0.37315,0.42,0.46,0.0251,,,1.4701,32.66,38.009,26.9112,26.9091,0.3857,90.8074,3.5014e+00,9.9990e+03,,,,,,,
CalCOFI,0701JD,0000,035,13-Jan-2007 1:42:24 PM,13-Jan-2007 5:42:24 AM,32.84482,-117.53818,093.3 030.0,093.3,030.0,504.000,508.196,6.7868,6.7880,34.3076,34.3063,34.3051,34.3052,0.37461,0.42,0.47,0.0253,,,1.4497,32.06,37.393,26.9088,26.9068,0.3857,90.8067,2.9014e+00,9.9990e+03,,,,,,,
CalCOFI,0701JD,0000,035,13-Jan-2007 1:42:25 PM,13-Jan-2007 5:42:25 AM,32.84482,-117.53818,093.3 030.0,093.3,030.0,503.000,507.186,6.7996,6.7996,34.3069,34.3056,34.3047,34.3048,0.37743,0.43,0.47,0.0253,,,1.4343,31.61,36.927,26.9066,26.9048,0.3859,90.8032,2.9557e+00,9.9990e+03,,,,,,,
CalCOFI,0701JD,0000,035,13-Jan-2007 1:42:27 PM,13-Jan-2007 5:42:27 AM,32.84482,-117.53818,093.3 030.0,093.3,030.0,502.000,506.176,6.8075,6.8077,34.3065,34.3052,34.3046,34.3047,0.37908,0.43,0.47,0.0257,,,1.4459,31.95,37.278,26.9052,26.9036,0.3856,90.8105,3.2886e+00,9.9990e+03,,,,,,,
CalCOFI,0701JD,0000,035,13-Jan-2007 1:42:28 PM,13-Jan-2007 5:42:28 AM,32.84482,-117.53818,093.3 030.0,093.3,030.0,501.000,505.167,6.8104,6.8110,34.3062,34.3049,34.3042,34.3043,0.37990,0.43,0.47,0.0257,,,1.4503,32.08,37.411,26.9045,26.9029,0.3859,90.8033,3.0274e+00,9.9990e+03,,,,,,,
CalCOFI,0701JD,0000,035,13-Jan-2007 1:42:29 PM,13-Jan-2007 5:42:29 AM,32.84482,-117.53818,093.3 030.0,093.3,030.0,500.000,504.157,6.8122,6.8127,34.3059,34.3046,34.3040,34.3041,0.38074,0.43,0.47,0.0256,,,1.4485,32.03,37.356,26.9040,26.9025,0.3858,90.8046,2.9647e+00,9.9990e+03,,,,,,,
CalCOFI,0701JD,0000,035,13-Jan-2007 1:42:31 PM,13-Jan-2007 5:42:31 AM,32.84482,-117.53818,093.3 030.0,093.3,030.0,499.000,503.148,6.8128,6.8136,34.3059,34.3046,34.3039,34.3040,0.38252,0.43,0.47,0.0255,,,1.4566,32.27,37.601,26.9039,26.9023,0.3883,90.7475,3.0623e+00,9.9990e+03,,,,,,,
CalCOFI,0701JD,0000,035,13-Jan-2007 1:42:32 PM,13-Jan-2007 5:42:32 AM,32.84482,-117.53818,093.3 030.0,093.3,030.0,498.000,502.138,6.8148,6.8151,34.3056,34.3043,34.3038,34.3039,0.38287,0.43,0.48,0.0251,,,1.4440,31.90,37.220,26.9035,26.9020,0.3855,90.8124,3.2311e+00,9.9990e+03,,,,,,,
CalCOFI,0701JD,0000,035,13-Jan-2007 1:42:33 PM,13-Jan-2007 5:42:33 AM,32.84482,-117.53818,093.3 030.0,093.3,030.0,497.000,501.129,6.8220,6.8231,34.3056,34.3043,34.3036,34.3037,0.38312,0.43,0.48,0.0253,,,1.4588,32.33,37.668,26.9025,26.9008,0.3856,90.8106,3.0180e+00,9.9990e+03,,,,,,,
CalCOFI,0701JD,0000,035,13-Jan-2007 1:42:34 PM,13-Jan-2007 5:42:34 AM,32.84482,-117.53818,093.3 030.0,093.3,030.0,496.000,500.119,6.8282,6.8288,34.3056,34.3043,34.3036,34.3037,0.38388,0.43,0.48,0.0259,,,1.4721,32.72,38.070,26.9016,26.9000,0.3859,90.8035,2.9258e+00,9.9990e+03,,,,,,,
CalCOFI,0701JD,0000,035,13-Jan-2007 1:42:35 PM,13-Jan-2007 5:42:35 AM,32.84482,-117.53818,093.3 030.0,093.3,030.0,495.000,499.110,6.8315,6.8321,34.3054,34.3041,34.3037,34.3038,0.38513,0.44,0.48,0.0261,,,1.4320,31.54,36.858,26.9010,26.8995,0.3859,90.8028,3.1225e+00,9.9990e+03,,,,,,,
CalCOFI,0701JD,0000,035,13-Jan-2007 1:42:36 PM,13-Jan-2007 5:42:36 AM,32.84482,-117.53818,093.3 030.0,093.3,030.0,494.000,498.100,6.8360,6.8362,34.3052,34.3039,34.3034,34.3035,0.38536,0.44,0.48,0.0253,,,1.4223,31.26,36.564,26.9002,26.8987,0.3862,90.7960,3.1284e+00,9.9990e+03,,,,,,,
CalCOFI,0701JD,0000,035,13-Jan-2007 1:42:37 PM,13-Jan-2007 5:42:37 AM,32.84482,-117.53818,093.3 030.0,093.3,030.0,493.000,497.091,6.8420,6.8429,34.3050,34.3037,34.3030,34.3031,0.38578,0.44,0.48,0.0255,,,1.4276,31.41,36.725,26.8992,26.8975,0.3860,90.8005,3.1622e+00,9.9990e+03,,,,,,,
CalCOFI,0701JD,0000,035,13-Jan-2007 1:42:39 PM,13-Jan-2007 5:42:39 AM,32.84482,-117.53818,093.3 030.0,093.3,030.0,492.000,496.081,6.8501,6.8505,34.3049,34.3036,34.3028,34.3029,0.38744,0.44,0.48,0.0255,,,1.4410,31.81,37.130,26.8981,26.8963,0.3852,90.8193,3.1621e+00,9.9990e+03,,,,,,,
CalCOFI,0701JD,0000,035,13-Jan-2007 1:42:40 PM,13-Jan-2007 5:42:40 AM,32.84482,-117.53818,093.3 030.0,093.3,030.0,491.000,495.072,6.8575,6.8602,34.3047,34.3034,34.3026,34.3027,0.38909,0.44,0.48,0.0256,,,1.4483,32.02,37.350,26.8968,26.8948,0.3861,90.7968,3.0683e+00,9.9990e+03,,,,,,,
CalCOFI,0701JD,0000,035,13-Jan-2007 1:42:41 PM,13-Jan-2007 5:42:41 AM,32.84482,-117.53818,093.3 030.0,093.3,030.0,490.000,494.062,6.8661,6.8670,34.3044,34.3031,34.3026,34.3027,0.39126,0.44,0.49,0.0253,,,1.4122,30.96,36.259,26.8954,26.8939,0.3861,90.7976,3.0034e+00,9.9990e+03,,,,,,,
CalCOFI,0701JD,0000,035,13-Jan-2007 1:42:42 PM,13-Jan-2007 5:42:42 AM,32.84482,-117.53818,093.3 030.0,093.3,030.0,489.000,493.053,6.8734,6.8744,34.3042,34.3029,34.3021,34.3022,0.39165,0.44,0.49,0.0255,,,1.4134,31.00,36.295,26.8943,26.8925,0.3857,90.8068,3.2353e+00,9.9990e+03,,,,,,,
CalCOFI,0701JD,0000,035,13-Jan-2007 1:42:43 PM,13-Jan-2007 5:42:43 AM,32.84482,-117.53818,093.3 030.0,093.3,030.0,488.000,492.043,6.8793,6.8801,34.3038,34.3025,34.3019,34.3020,0.39233,0.44,0.49,0.0251,,,1.4445,31.91,37.235,26.8931,26.8915,0.3858,90.8007,2.9298e+00,9.9990e+03,,,,,,,
CalCOFI,0701JD,0000,035,13-Jan-2007 1:42:44 PM,13-Jan-2007 5:42:44 AM,32.84482,-117.53818,093.3 030.0,093.3,030.0,487.000,491.034,6.8828,6.8833,34.3036,34.3023,34.3018,34.3019,0.39474,0.45,0.49,0.0257,,,1.4456,31.94,37.269,26.8925,26.8911,0.3861,90.7976,3.1297e+00,9.9990e+03,,,,,,,
CalCOFI,0701JD,0000,035,13-Jan-2007 1:42:44 PM,13-Jan-2007 5:42:44 AM,32.84482,-117.53818,093.3 030.0,093.3,030.0,486.000,490.024,6.8888,6.8896,34.3034,34.3021,34.3014,34.3015,0.39555,0.45,0.49,0.0255,,,1.4477,32.00,37.332,26.8916,26.8899,0.3860,90.7976,3.0170e+00,9.9990e+03,,,,,,,
CalCOFI,0701JD,0000,035,13-Jan-2007 1:42:45 PM,13-Jan-2007 5:42:45 AM,32.84482,-117.53818,093.3 030.0,093.3,030.0,485.000,489.015,6.8976,6.8977,34.3031,34.3018,34.3013,34.3014,0.39691,0.45,0.49,0.0251,,,1.4423,31.85,37.169,26.8901,26.8887,0.3860,90.7976,3.2003e+00,9.9990e+03,,,,,,,
CalCOFI,0701JD,0000,035,13-Jan-2007 1:42:46 PM,13-Jan-2007 5:42:46 AM,32.84482,-117.53818,093.3 030.0,093.3,030.0,484.000,488.005,6.9051,6.9058,34.3029,34.3016,34.3010,34.3011,0.39813,0.45,0.49,0.0252,,,1.4303,31.49,36.806,26.8889,26.8873,0.3863,90.7976,3.1021e+00,9.9990e+03,,,,,,,
CalCOFI,0701JD,0000,035,13-Jan-2007 1:42:48 PM,13-Jan-2007 5:42:48 AM,32.84482,-117.53818,093.3 030.0,093.3,030.0,483.000,486.996,6.9115,6.9123,34.3025,34.3012,34.3007,34.3008,0.39889,0.45,0.49,0.0253,,,1.4276,31.41,36.725,26.8877,26.8862,0.3854,90.8156,2.8817e+00,9.9990e+03,,,,,,,
CalCOFI,0701JD,0000,035,13-Jan-2007 1:42:49 PM,13-Jan-2007 5:42:49 AM,32.84482,-117.53818,093.3 030.0,093.3,030.0,482.000,485.987,6.9147,6.9153,34.3022,34.3009,34.3007,34.3008,0.40010,0.45,0.50,0.0254,,,1.4275,31.41,36.722,26.8870,26.8857,0.3855,90.8121,3.1805e+00,9.9990e+03,,,,,,,
CalCOFI,0701JD,0000,035,13-Jan-2007 1:42:50 PM,13-Jan-2007 5:42:50 AM,32.84482,-117.53818,093.3 030.0,093.3,030.0,481.000,484.977,6.9159,6.9164,34.3021,34.3008,34.3005,34.3006,0.40190,0.46,0.50,0.0255,,,1.4253,31.35,36.655,26.8867,26.8855,0.3861,90.7985,3.1719e+00,9.9990e+03,,,,,,,
CalCOFI,0701JD,0000,035,13-Jan-2007 1:42:51 PM,13-Jan-2007 5:42:51 AM,32.84482,-117.53818,093.3 030.0,093.3,030.0,480.000,483.968,6.9223,6.9233,34.3022,34.3009,34.3002,34.3003,0.40381,0.46,0.50,0.0254,,,1.4221,31.25,36.558,26.8860,26.8842,0.3859,90.8032,3.0545e+00,9.9990e+03,,,,,,,
CalCOFI,0701JD,0000,035,13-Jan-2007 1:42:52 PM,13-Jan-2007 5:42:52 AM,32.84482,-117.53818,093.3 030.0,093.3,030.0,479.000,482.958,6.9338,6.9350,34.3015,34.3002,34.2995,34.2996,0.40647,0.46,0.50,0.0253,,,1.4155,31.06,36.359,26.8838,26.8821,0.3857,90.8071,2.6509e+00,9.9990e+03,,,,,,,
CalCOFI,0701JD,0000,035,13-Jan-2007 1:42:53 PM,13-Jan-2007 5:42:53 AM,32.84482,-117.53818,093.3 030.0,093.3,030.0,478.000,481.949,6.9423,6.9429,34.3007,34.2994,34.2989,34.2990,0.40889,0.46,0.51,0.0254,,,1.4465,31.97,37.296,26.8820,26.8806,0.3858,90.8043,3.1493e+00,9.9990e+03,,,,,,,
CalCOFI,0701JD,0000,035,13-Jan-2007 1:42:54 PM,13-Jan-2007 5:42:54 AM,32.84482,-117.53818,093.3 030.0,093.3,030.0,477.000,480.939,6.9563,6.9573,34.3000,34.2987,34.2981,34.2982,0.41142,0.47,0.51,0.0261,,,1.4185,31.15,36.449,26.8795,26.8779,0.3855,90.8122,3.1195e+00,9.9990e+03,,,,,,,
CalCOFI,0701JD,0000,035,13-Jan-2007 1:42:55 PM,13-Jan-2007 5:42:55 AM,32.84482,-117.53818,093.3 030.0,093.3,030.0,476.000,479.930,6.9623,6.9625,34.2996,34.2983,34.2980,34.2981,0.41397,0.47,0.51,0.0256,,,1.4413,31.82,37.139,26.8784,26.8771,0.3860,90.7995,3.3034e+00,9.9990e+03,,,,,,,
CalCOFI,0701JD,0000,035,13-Jan-2007 1:42:56 PM,13-Jan-2007 5:42:56 AM,32.84482,-117.53818,093.3 030.0,093.3,030.0,475.000,478.920,6.9669,6.9686,34.2995,34.2982,34.2978,34.2979,0.41604,0.47,0.52,0.0255,,,1.4357,31.65,36.969,26.8777,26.8761,0.3858,90.8058,2.5638e+00,9.9990e+03,,,,,,,
CalCOFI,0701JD,0000,035,13-Jan-2007 1:42:57 PM,13-Jan-2007 5:42:57 AM,32.84482,-117.53818,093.3 030.0,093.3,030.0,474.000,477.911,6.9768,6.9784,34.2992,34.2979,34.2974,34.2975,0.41785,0.48,0.52,0.0250,,,1.4265,31.38,36.691,26.8761,26.8744,0.3861,90.7994,3.0163e+00,9.9990e+03,,,,,,,
CalCOFI,0701JD,0000,035,13-Jan-2007 1:42:58 PM,13-Jan-2007 5:42:58 AM,32.84482,-117.53818,093.3 030.0,093.3,030.0,473.000,476.902,6.9826,6.9832,34.2988,34.2975,34.2975,34.2976,0.41914,0.48,0.52,0.0251,,,1.4123,30.97,36.262,26.8749,26.8739,0.3856,90.8111,2.9527e+00,9.9990e+03,,,,,,,
CalCOFI,0701JD,0000,035,13-Jan-2007 1:42:59 PM,13-Jan-2007 5:42:59 AM,32.84482,-117.53818,093.3 030.0,093.3,030.0,472.000,475.892,6.9836,6.9841,34.2988,34.2975,34.2974,34.2975,0.42092,0.48,0.52,0.0254,,,1.4040,30.72,36.011,26.8749,26.8736,0.3855,90.8134,3.4056e+00,9.9990e+03,,,,,,,
CalCOFI,0701JD,0000,035,13-Jan-2007 1:43:00 PM,13-Jan-2007 5:43:00 AM,32.84482,-117.53818,093.3 030.0,093.3,030.0,471.000,474.883,6.9870,6.9882,34.2993,34.2980,34.2976,34.2977,0.42246,0.48,0.52,0.0254,,,1.4115,30.94,36.238,26.8748,26.8732,0.3862,90.7966,3.1110e+00,9.9990e+03,,,,,,,
CalCOFI,0701JD,0000,035,13-Jan-2007 1:43:01 PM,13-Jan-2007 5:43:01 AM,32.84482,-117.53818,093.3 030.0,093.3,030.0,470.000,473.873,7.0003,7.0018,34.2989,34.2976,34.2972,34.2973,0.42403,0.48,0.53,0.0255,,,1.4281,31.43,36.740,26.8725,26.8710,0.3864,90.7920,3.1015e+00,9.9990e+03,,,,,,,
CalCOFI,0701JD,0000,035,13-Jan-2007 1:43:02 PM,13-Jan-2007 5:43:02 AM,32.84482,-117.53818,093.3 030.0,093.3,030.0,469.000,472.864,7.0075,7.0082,34.2980,34.2967,34.2964,34.2965,0.42755,0.49,0.53,0.0251,,,1.4300,31.49,36.797,26.8709,26.8695,0.3856,90.8110,3.3348e+00,9.9990e+03,,,,,,,
CalCOFI,0701JD,0000,035,13-Jan-2007 1:43:03 PM,13-Jan-2007 5:43:03 AM,32.84482,-117.53818,093.3 030.0,093.3,030.0,468.000,471.855,7.0142,7.0150,34.2971,34.2958,34.2955,34.2956,0.43131,0.49,0.53,0.0251,,,1.4433,31.88,37.199,26.8692,26.8678,0.3853,90.8174,2.7889e+00,9.9990e+03,,,,,,,
CalCOFI,0701JD,0000,035,13-Jan-2007 1:43:04 PM,13-Jan-2007 5:43:04 AM,32.84482,-117.53818,093.3 030.0,093.3,030.0,467.000,470.845,7.0208,7.0217,34.2966,34.2953,34.2948,34.2949,0.43597,0.50,0.54,0.0256,,,1.4469,31.98,37.308,26.8679,26.8664,0.3854,90.8162,3.1810e+00,9.9990e+03,,,,,,,
CalCOFI,0701JD,0000,035,13-Jan-2007 1:43:05 PM,13-Jan-2007 5:43:05 AM,32.84482,-117.53818,093.3 030.0,093.3,030.0,466.000,469.836,7.0364,7.0394,34.2960,34.2947,34.2936,34.2937,0.43814,0.50,0.54,0.0255,,,1.4115,30.94,36.238,26.8653,26.8630,0.3857,90.8075,2.9279e+00,9.9990e+03,,,,,,,
CalCOFI,0701JD,0000,035,13-Jan-2007 1:43:06 PM,13-Jan-2007 5:43:06 AM,32.84482,-117.53818,093.3 030.0,093.3,030.0,465.000,468.826,7.0469,7.0475,34.2945,34.2932,34.2930,34.2931,0.44116,0.50,0.55,0.0253,,,1.4399,31.78,37.096,26.8626,26.8614,0.3859,90.8037,3.0012e+00,9.9990e+03,,,,,,,
CalCOFI,0701JD,0000,035,13-Jan-2007 1:43:06 PM,13-Jan-2007 5:43:06 AM,32.84482,-117.53818,093.3 030.0,093.3,030.0,464.000,467.817,7.0528,7.0533,34.2941,34.2928,34.2927,34.2928,0.44320,0.51,0.55,0.0255,,,1.4488,32.04,37.365,26.8615,26.8603,0.3852,90.8194,2.9866e+00,9.9990e+03,,,,,,,
CalCOFI,0701JD,0000,035,13-Jan-2007 1:43:07 PM,13-Jan-2007 5:43:07 AM,32.84482,-117.53818,093.3 030.0,093.3,030.0,463.000,466.808,7.0589,7.0612,34.2941,34.2928,34.2922,34.2923,0.44638,0.51,0.55,0.0251,,,1.4349,31.63,36.945,26.8607,26.8589,0.3855,90.8133,2.8169e+00,9.9990e+03,,,,,,,
CalCOFI,0701JD,0000,035,13-Jan-2007 1:43:09 PM,13-Jan-2007 5:43:09 AM,32.84482,-117.53818,093.3 030.0,093.3,030.0,462.000,465.798,7.0661,7.0704,34.2938,34.2925,34.2917,34.2918,0.45148,0.52,0.56,0.0257,,,1.4565,32.26,37.598,26.8595,26.8572,0.3857,90.8065,3.5848e+00,9.9990e+03,,,,,,,
CalCOFI,0701JD,0000,035,13-Jan-2007 1:43:10 PM,13-Jan-2007 5:43:10 AM,32.84482,-117.53818,093.3 030.0,093.3,030.0,461.000,464.789,7.0756,7.0841,34.2932,34.2919,34.2910,34.2911,0.45613,0.52,0.56,0.0255,,,1.4287,31.45,36.758,26.8576,26.8547,0.3859,90.8035,2.9038e+00,9.9990e+03,,,,,,,
CalCOFI,0701JD,0000,035,13-Jan-2007 1:43:11 PM,13-Jan-2007 5:43:11 AM,32.84482,-117.53818,093.3 030.0,093.3,030.0,460.000,463.780,7.0954,7.0963,34.2915,34.2902,34.2900,34.2901,0.46036,0.53,0.57,0.0255,,,1.4303,31.49,36.806,26.8535,26.8523,0.3857,90.8085,2.6902e+00,9.9990e+03,,,,,,,
CalCOFI,0701JD,0000,035,13-Jan-2007 1:43:12 PM,13-Jan-2007 5:43:12 AM,32.84482,-117.53818,093.3 030.0,093.3,030.0,459.000,462.770,7.1054,7.1072,34.2906,34.2893,34.2890,34.2891,0.46391,0.53,0.57,0.0253,,,1.4263,31.38,36.685,26.8514,26.8500,0.3850,90.8249,3.0823e+00,9.9990e+03,,,,,,,
CalCOFI,0701JD,0000,035,13-Jan-2007 1:43:13 PM,13-Jan-2007 5:43:13 AM,32.84482,-117.53818,093.3 030.0,093.3,030.0,458.000,461.761,7.1133,7.1144,34.2897,34.2884,34.2884,34.2885,0.46785,0.54,0.58,0.0249,,,1.4162,31.08,36.380,26.8497,26.8485,0.3863,90.7928,2.8351e+00,9.9990e+03,,,,,,,
CalCOFI,0701JD,0000,035,13-Jan-2007 1:43:14 PM,13-Jan-2007 5:43:14 AM,32.84482,-117.53818,093.3 030.0,093.3,030.0,457.000,460.752,7.1161,7.1164,34.2895,34.2882,34.2881,34.2882,0.47237,0.54,0.58,0.0253,,,1.4340,31.60,36.918,26.8491,26.8480,0.3853,90.8181,2.8801e+00,9.9990e+03,,,,,,,
CalCOFI,0701JD,0000,035,13-Jan-2007 1:43:15 PM,13-Jan-2007 5:43:15 AM,32.84482,-117.53818,093.3 030.0,093.3,030.0,456.000,459.742,7.1315,7.1321,34.2882,34.2869,34.2865,34.2866,0.47481,0.54,0.59,0.0257,,,1.4341,31.61,36.921,26.8459,26.8445,0.3857,90.8072,2.9249e+00,9.9990e+03,,,,,,,
CalCOFI,0701JD,0000,035,13-Jan-2007 1:43:16 PM,13-Jan-2007 5:43:16 AM,32.84482,-117.53818,093.3 030.0,093.3,030.0,455.000,458.733,7.1439,7.1448,34.2869,34.2856,34.2855,34.2856,0.47766,0.55,0.59,0.0252,,,1.4020,30.66,35.951,26.8432,26.8419,0.3860,90.8001,2.9757e+00,9.9990e+03,,,,,,,
CalCOFI,0701JD,0000,035,13-Jan-2007 1:43:17 PM,13-Jan-2007 5:43:17 AM,32.84482,-117.53818,093.3 030.0,093.3,030.0,454.000,457.724,7.1503,7.1509,34.2869,34.2856,34.2856,34.2857,0.48010,0.55,0.59,0.0253,,,1.3899,30.31,35.585,26.8422,26.8412,0.3852,90.8202,2.9251e+00,9.9990e+03,,,,,,,
CalCOFI,0701JD,0000,035,13-Jan-2007 1:43:18 PM,13-Jan-2007 5:43:18 AM,32.84482,-117.53818,093.3 030.0,093.3,030.0,453.000,456.714,7.1566,7.1572,34.2873,34.2860,34.2859,34.2860,0.48284,0.55,0.60,0.0252,,,1.3919,30.37,35.646,26.8417,26.8405,0.3851,90.8214,3.1175e+00,9.9990e+03,,,,,,,
CalCOFI,0701JD,0000,035,13-Jan-2007 1:43:19 PM,13-Jan-2007 5:43:19 AM,32.84482,-117.53818,093.3 030.0,093.3,030.0,452.000,455.705,7.1636,7.1642,34.2869,34.2856,34.2856,34.2857,0.48455,0.56,0.60,0.0256,,,1.4212,31.23,36.531,26.8404,26.8393,0.3852,90.8201,2.9398e+00,9.9990e+03,,,,,,,
CalCOFI,0701JD,0000,035,13-Jan-2007 1:43:20 PM,13-Jan-2007 5:43:20 AM,32.84482,-117.53818,093.3 030.0,093.3,030.0,451.000,454.696,7.1739,7.1752,34.2880,34.2867,34.2865,34.2866,0.48665,0.56,0.60,0.0247,,,1.4198,31.19,36.489,26.8398,26.8384,0.3857,90.8080,3.1770e+00,9.9990e+03,,,,,,,
CalCOFI,0701JD,0000,035,13-Jan-2007 1:43:21 PM,13-Jan-2007 5:43:21 AM,32.84482,-117.53818,093.3 030.0,093.3,030.0,450.000,453.687,7.1875,7.1885,34.2882,34.2869,34.2867,34.2868,0.49274,0.57,0.61,0.0254,,,1.3891,30.28,35.561,26.8381,26.8368,0.3859,90.8031,3.1720e+00,9.9990e+03,,,,,,,
CalCOFI,0701JD,0000,035,13-Jan-2007 1:43:22 PM,13-Jan-2007 5:43:22 AM,32.84482,-117.53818,093.3 030.0,093.3,030.0,449.000,452.677,7.1897,7.1897,34.2841,34.2828,34.2832,34.2833,0.50026,0.58,0.62,0.0252,,,1.3900,30.31,35.588,26.8345,26.8338,0.3852,90.8191,2.6211e+00,9.9990e+03,,,,,,,
CalCOFI,0701JD,0000,035,13-Jan-2007 1:43:23 PM,13-Jan-2007 5:43:23 AM,32.84482,-117.53818,093.3 030.0,093.3,030.0,448.000,451.668,7.1886,7.1889,34.2798,34.2785,34.2783,34.2784,0.50766,0.58,0.63,0.0250,,,1.4146,31.03,36.332,26.8312,26.8301,0.3851,90.8224,3.2307e+00,9.9990e+03,,,,,,,
CalCOFI,0701JD,0000,035,13-Jan-2007 1:43:24 PM,13-Jan-2007 5:43:24 AM,32.84482,-117.53818,093.3 030.0,093.3,030.0,447.000,450.659,7.1925,7.1939,34.2781,34.2768,34.2765,34.2766,0.51352,0.59,0.63,0.0251,,,1.3977,30.54,35.821,26.8294,26.8279,-9.990e-29,90.8224,3.0873e+00,9.9990e+03,,,,,,,
CalCOFI,0701JD,0000,035,13-Jan-2007 1:43:25 PM,13-Jan-2007 5:43:25 AM,32.84482,-117.53818,093.3 030.0,093.3,030.0,446.000,449.649,7.2047,7.2053,34.2779,34.2766,34.2768,34.2769,0.51722,0.60,0.64,0.0253,,,1.3943,30.44,35.718,26.8275,26.8266,-9.990e-29,90.8224,3.3858e+00,9.9990e+03,,,,,,,
CalCOFI,0701JD,0000,035,13-Jan-2007 1:43:26 PM,13-Jan-2007 5:43:26 AM,32.84482,-117.53818,093.3 030.0,093.3,030.0,445.000,448.640,7.2063,7.2067,34.2779,34.2766,34.2769,34.2770,0.51923,0.60,0.64,0.0253,,,1.4127,30.98,36.274,26.8273,26.8264,-9.990e-29,90.8224,3.4752e+00,9.9990e+03,,,,,,,
CalCOFI,0701JD,0000,035,13-Jan-2007 1:43:27 PM,13-Jan-2007 5:43:27 AM,32.84482,-117.53818,093.3 030.0,093.3,030.0,444.000,447.631,7.2109,7.2115,34.2784,34.2771,34.2770,34.2771,0.52235,0.60,0.65,0.0256,,,1.4196,31.18,36.483,26.8271,26.8258,-9.990e-29,90.8224,2.9252e+00,9.9990e+03,,,,,,,
CalCOFI,0701JD,0000,035,13-Jan-2007 1:43:28 PM,13-Jan-2007 5:43:28 AM,32.84482,-117.53818,093.3 030.0,093.3,030.0,443.000,446.622,7.2277,7.2290,34.2796,34.2783,34.2781,34.2782,0.52490,0.61,0.65,0.0254,,,1.4178,31.13,36.428,26.8257,26.8242,-9.990e-29,90.8234,2.9182e+00,9.9990e+03,,,,,,,
CalCOFI,0701JD,0000,035,13-Jan-2007 1:43:29 PM,13-Jan-2007 5:43:29 AM,32.84482,-117.53818,093.3 030.0,093.3,030.0,442.000,445.612,7.2394,7.2403,34.2791,34.2778,34.2781,34.2782,0.52714,0.61,0.65,0.0255,,,1.4138,31.01,36.307,26.8236,26.8226,-9.990e-29,90.8311,3.3425e+00,9.9990e+03,,,,,,,
CalCOFI,0701JD,0000,035,13-Jan-2007 1:43:30 PM,13-Jan-2007 5:43:30 AM,32.84482,-117.53818,093.3 030.0,093.3,030.0,441.000,444.603,7.2459,7.2466,34.2790,34.2777,34.2779,34.2780,0.53019,0.61,0.65,0.0251,,,1.4035,30.71,35.996,26.8226,26.8216,-9.990e-29,90.8224,3.2801e+00,9.9990e+03,,,,,,,
CalCOFI,0701JD,0000,035,13-Jan-2007 1:43:31 PM,13-Jan-2007 5:43:31 AM,32.84482,-117.53818,093.3 030.0,093.3,030.0,440.000,443.594,7.2569,7.2579,34.2789,34.2776,34.2775,34.2776,0.53181,0.61,0.66,0.0251,,,1.3764,29.91,35.177,26.8209,26.8197,0.3856,90.8152,3.2477e+00,9.9990e+03,,,,,,,
CalCOFI,0701JD,0000,035,13-Jan-2007 1:43:33 PM,13-Jan-2007 5:43:33 AM,32.84482,-117.53818,093.3 030.0,093.3,030.0,439.000,442.585,7.2478,7.2675,34.2786,34.2773,34.2760,34.2761,0.53490,0.62,0.66,0.0251,,,1.3974,30.53,35.812,26.8220,26.8172,0.3856,90.8109,2.9111e+00,9.9990e+03,,,,,,,
CalCOFI,0701JD,0000,035,13-Jan-2007 1:43:35 PM,13-Jan-2007 5:43:35 AM,32.84482,-117.53818,093.3 030.0,093.3,030.0,438.000,441.575,7.2631,7.2721,34.2794,34.2781,34.2773,34.2774,0.53780,0.62,0.66,0.0250,,,1.4131,30.99,36.286,26.8204,26.8176,0.3851,90.8211,3.4036e+00,9.9990e+03,438,7.29 ,34.275,  .62,,,36.0
CalCOFI,0701JD,0000,035,13-Jan-2007 1:44:29 PM,13-Jan-2007 5:44:29 AM,32.84462,-117.53803,093.3 030.0,093.3,030.0,437.000,440.566,7.2998,7.3003,34.2767,34.2754,34.2763,34.2764,0.54562,0.63,0.67,0.0251,,,1.3975,30.53,35.815,26.8132,26.8128,0.3857,90.8089,3.1144e+00,9.9990e+03,,,,,,,
CalCOFI,0701JD,0000,035,13-Jan-2007 1:44:49 PM,13-Jan-2007 5:44:49 AM,32.84450,-117.53800,093.3 030.0,093.3,030.0,436.000,439.557,7.3045,7.3052,34.2769,34.2756,34.2760,34.2761,0.55361,0.64,0.68,0.0252,,,1.3774,29.94,35.207,26.8127,26.8119,0.3854,90.8151,3.0726e+00,9.9990e+03,,,,,,,
CalCOFI,0701JD,0000,035,13-Jan-2007 1:44:53 PM,13-Jan-2007 5:44:53 AM,32.84450,-117.53800,093.3 030.0,093.3,030.0,435.000,438.548,7.3068,7.3078,34.2765,34.2752,34.2758,34.2759,0.55569,0.64,0.69,0.0252,,,1.3904,30.32,35.600,26.8120,26.8113,0.3855,90.8134,3.1093e+00,9.9990e+03,,,,,,,
CalCOFI,0701JD,0000,035,13-Jan-2007 1:44:56 PM,13-Jan-2007 5:44:56 AM,32.84449,-117.53800,093.3 030.0,093.3,030.0,434.000,437.538,7.3149,7.3151,34.2763,34.2750,34.2752,34.2753,0.56210,0.65,0.69,0.0250,,,1.3906,30.33,35.606,26.8107,26.8098,0.3855,90.8122,3.0497e+00,9.9990e+03,,,,,,,
CalCOFI,0701JD,0000,035,13-Jan-2007 1:44:58 PM,13-Jan-2007 5:44:58 AM,32.84432,-117.53800,093.3 030.0,093.3,030.0,433.000,436.529,7.3356,7.3352,34.2730,34.2717,34.2724,34.2725,0.56985,0.66,0.70,0.0250,,,1.3972,30.52,35.806,26.8052,26.8048,0.3848,90.8296,2.9998e+00,9.9990e+03,,,,,,,
CalCOFI,0701JD,0000,035,13-Jan-2007 1:45:00 PM,13-Jan-2007 5:45:00 AM,32.84432,-117.53800,093.3 030.0,093.3,030.0,432.000,435.520,7.3411,7.3414,34.2717,34.2704,34.2709,34.2710,0.57653,0.67,0.71,0.0248,,,1.3835,30.12,35.392,26.8034,26.8027,0.3852,90.8208,3.2903e+00,9.9990e+03,,,,,,,
CalCOFI,0701JD,0000,035,13-Jan-2007 1:45:02 PM,13-Jan-2007 5:45:02 AM,32.84432,-117.53800,093.3 030.0,093.3,030.0,431.000,434.511,7.3403,7.3408,34.2701,34.2688,34.2695,34.2696,0.58174,0.68,0.72,0.0251,,,1.3681,29.67,34.926,26.8022,26.8017,0.3856,90.8097,3.2580e+00,9.9990e+03,,,,,,,
CalCOFI,0701JD,0000,035,13-Jan-2007 1:45:03 PM,13-Jan-2007 5:45:03 AM,32.84432,-117.53800,093.3 030.0,093.3,030.0,430.000,433.502,7.3426,7.3428,34.2683,34.2670,34.2678,34.2679,0.58894,0.68,0.73,0.0250,,,1.3622,29.49,34.748,26.8005,26.8001,0.3849,90.8263,2.9974e+00,9.9990e+03,,,,,,,